Weather Roundup
Issued by NWS Springfield, MO

Home | Current Version | Previous Version | Text Only | Print | Product List | Glossary On
Versions: 1 2 3 4 5 6 7 8 9 10 11 12 13 14 15 16 17 18 19 20 21 22 23 24 25 26 27 28 29 30 31 32 33 34 35 36 37 38 39 40 41 42 43 44 45 46 47 48 49 50
000
NZUS99 KSGF 241557
HRRSGF

HOURLY WEATHER
NATIONAL WEATHER SERVICE SPRINGFIELD MO
1100 AM CDT FRI MAR 24 2017

......SGF CWA......

CITY           SKY/WX    TMP DP  RH WIND       PRES   REMARKS
SPRINGFIELD    PTSUNNY   69  49  48 S25G35    29.94R
JOPLIN         CLOUDY    67  52  58 S24G33    29.90R
WEST PLAINS    MOSUNNY   68  55  63 S15G26    30.05S
ROLLA          SUNNY     74  52  46 S28G41    29.95R
BRANSON        PTSUNNY   68  50  52 S21G32    30.00R

......SURROUNDING SGF CWA......

CITY           SKY/WX    TMP DP  RH WIND       PRES   REMARKS
CHANUTE        CLOUDY    68  52  56 S29G37    29.84R
PARSONS        PTSUNNY   70  53  54 S18G28    29.85R
COFFEYVILLE    CLOUDY    68  54  60 S24G32    29.85R
EMPORIA        PTSUNNY   71  53  52 S31G40    29.77R
HARRISON AR    MOSUNNY   69  53  56 S18G29    30.01R

......KANSAS AND MISSOURI......

CITY           SKY/WX    TMP DP  RH WIND       PRES   REMARKS
KANSAS CTY INT LGT RAIN  64  46  52 S10       29.86R
SEDALIA        CLOUDY    71  45  39 S26G36    29.90R
ST JOSEPH      TSTM      57  55  93 W7        29.88R VSB 1
ST LOUIS       PTSUNNY   75  55  49 S17       29.99F
WICHITA        MOSUNNY   67  52  58 S23G30    29.77R
TOPEKA         CLOUDY    67  54  63 S9        29.81S
OLATHE         CLOUDY    63  53  70 S12G21    29.85R

......TENNESSEE......

CITY           SKY/WX    TMP DP  RH WIND       PRES   REMARKS
MEMPHIS        NOT AVBL
NASHVILLE      PTSUNNY   70  52  52 S16       30.29R

......ARKANSAS.......

CITY           SKY/WX    TMP DP  RH WIND       PRES   REMARKS
FAYETTEVILLE   CLOUDY    65  55  70 S22G31    29.95S
FT SMITH       CLOUDY    72  52  49 S15G22    29.96S
LITTLE ROCK    CLOUDY    70  62  76 S18G24    30.11R

......OKLAHOMA.......

CITY           SKY/WX    TMP DP  RH WIND       PRES   REMARKS
TULSA          CLOUDY    69  57  65 S21G28    29.83F
PONCA CITY     PTSUNNY   72  54  53 S10G24    29.77S
MCALESTER      CLOUDY    66  58  75 S15G26    29.88F
OKLAHOMA CITY  PTSUNNY   69  55  60 S25G35    29.76F

......IOWA............

CITY           SKY/WX    TMP DP  RH WIND       PRES   REMARKS
DES MOINES     NOT AVBL
QUAD CITIES    PTSUNNY   74  48  39 SW18G28   29.87R

......ILLINOIS........

CITY           SKY/WX    TMP DP  RH WIND       PRES   REMARKS
QUINCY         NOT AVBL
CHICAGO        CLOUDY    70  49  47 SW17G31   29.91S



USA.gov is the U.S. government's official web portal to all federal, state and local government web resources and services.